Location: Savignano sul Rubicone
(44.0950°N, 12.4090°E)
Time: 01:35:49
(UTC+01:00)

OTV 5 (USA 277) - Visible Passes

Search period start: 22 February 2019 00:00
Search period end: 04 March 2019 00:00
Orbit: 342 x 346 km, 54.5° (Epoch: 17 February)

Date Brightness Start Highest point End Pass type
(mag) Time Alt. Az. Time Alt. Az. Time Alt. Az.
22 Feb ? 19:14:15 10° S 19:14:44 12° SSE 19:14:44 12° SSE visible
23 Feb ? 19:36:52 10° SW 19:38:24 27° SSW 19:38:24 27° SSW visible
24 Feb ? 18:26:45 10° S 18:28:41 16° SE 18:30:29 11° E visible
24 Feb ? 20:00:34 10° WSW 20:01:57 24° W 20:01:57 24° W visible
25 Feb ? 18:49:19 10° SW 18:52:08 52° SE 18:53:53 20° ENE visible
25 Feb ? 20:24:54 10° WNW 20:25:21 13° WNW 20:25:21 13° WNW visible
26 Feb ? 19:12:59 10° WSW 19:15:47 47° NNW 19:17:09 25° NNE visible
27 Feb ? 19:37:18 10° WNW 19:39:38 22° NNW 19:40:19 20° N visible
28 Feb ? 18:25:23 10° WSW 18:28:13 49° NNW 18:31:03 10° NE visible
28 Feb ? 20:02:04 10° NW 20:03:23 14° NNW 20:03:23 14° NNW visible
01 Mar ? 18:49:42 10° W 18:52:04 22° NNW 18:54:26 10° NNE visible
02 Mar ? 19:14:26 10° NW 19:16:05 14° NNW 19:17:43 10° NNE visible
03 Mar ? 19:39:17 10° NNW 19:40:13 11° N 19:40:48 11° N visible
